Kosmos-622

operational
NORAD ID: 6990 Int'l Des: 1973-104 Owner: GUKOSR Country: SU
LEOCIRCULAR

Kosmos-622について

説明を読み込み中...

リアルタイム位置

3D地球を読み込み中...

次回通過

高度履歴

Altitude vs Time

uPlot chart will show altitude changes over time

軌道要素

1 6990U 73104F 26061.09244604 -.00000019 00000-0 -16733-4 0 9999
2 6990 74.0296 37.0621 0073161 123.4046 308.6089 12.59118937399158
Epoch: Mar 2, 2026 • Age: 39 hours

現在のステータス

高度 1390.5 km
速度 7.18 km/s
衛星直下点 9.50°N, 173.58°W
タイプ other

大規模コンステレーション

Loading constellations...